TimePDT,TemperatureF,Dew PointF,Humidity,Sea Level PressureIn,VisibilityMPH,Wind Direction,Wind SpeedMPH,Gust SpeedMPH,PrecipitationIn,Events,Conditions,WindDirDegrees,DateUTC
12:53 AM,48.9,44.1,83,30.09,10.0,Calm,Calm,-,N/A,,Clear,0,2013-03-19 07:53:00
1:53 AM,48.9,44.1,83,30.09,10.0,Calm,Calm,-,N/A,,Scattered Clouds,0,2013-03-19 08:53:00
2:53 AM,50.0,44.1,80,30.09,10.0,Calm,Calm,-,N/A,,Mostly Cloudy,0,2013-03-19 09:53:00
3:53 AM,48.9,44.1,83,30.08,10.0,Calm,Calm,-,N/A,,Clear,0,2013-03-19 10:53:00
4:53 AM,48.9,43.0,80,30.06,10.0,NE,3.5,-,N/A,,Clear,40,2013-03-19 11:53:00
5:53 AM,46.9,43.0,86,30.08,10.0,Calm,Calm,-,N/A,,Clear,0,2013-03-19 12:53:00
6:53 AM,46.0,42.1,86,30.08,10.0,East,3.5,-,N/A,,Clear,80,2013-03-19 13:53:00
7:53 AM,46.9,42.1,83,30.10,10.0,Calm,Calm,-,N/A,,Clear,0,2013-03-19 14:53:00
8:53 AM,50.0,44.1,80,30.11,10.0,East,3.5,-,N/A,,Partly Cloudy,80,2013-03-19 15:53:00
9:53 AM,55.0,43.0,64,30.10,10.0,Calm,Calm,-,N/A,,Overcast,0,2013-03-19 16:53:00
10:53 AM,60.1,42.1,51,30.10,10.0,Calm,Calm,-,N/A,,Clear,0,2013-03-19 17:53:00
11:53 AM,64.0,44.1,48,30.10,10.0,SSW,4.6,-,N/A,,Clear,210,2013-03-19 18:53:00
12:53 PM,66.9,44.1,44,30.09,10.0,Calm,Calm,-,N/A,,Overcast,0,2013-03-19 19:53:00
1:53 PM,71.1,45.0,39,30.07,10.0,Variable,3.5,-,N/A,,Mostly Cloudy,0,2013-03-19 20:53:00
2:53 PM,70.0,43.0,38,30.07,9.0,West,15.0,-,N/A,,Clear,280,2013-03-19 21:53:00
3:53 PM,66.0,44.1,45,30.07,10.0,West,11.5,-,N/A,,Overcast,280,2013-03-19 22:53:00
4:53 PM,63.0,43.0,48,30.09,10.0,West,15.0,-,N/A,,Overcast,280,2013-03-19 23:53:00
5:53 PM,61.0,41.0,48,30.12,10.0,WSW,13.8,-,0.00,,Overcast,250,2013-03-20 00:53:00
6:53 PM,57.0,44.1,62,30.13,10.0,West,10.4,-,0.00,Rain,Light Rain,270,2013-03-20 01:53:00
7:53 PM,53.1,41.0,64,30.13,10.0,NW,6.9,-,0.02,Rain,Light Rain,310,2013-03-20 02:53:00
8:53 PM,50.0,44.1,80,30.12,9.0,Calm,Calm,-,0.04,Rain,Light Rain,0,2013-03-20 03:53:00
9:53 PM,51.1,45.0,80,30.11,10.0,South,4.6,-,0.00,,Overcast,170,2013-03-20 04:53:00
10:53 PM,50.0,46.0,86,30.11,10.0,Calm,Calm,-,0.00,Rain,Light Rain,0,2013-03-20 05:53:00
11:53 PM,52.0,48.0,86,30.10,10.0,ENE,5.8,-,0.01,,Overcast,60,2013-03-20 06:53:00